SCP
0 0 0 0 0 0 0 0 0 0 0 0 0 0 0 0 0 0 0 0 0 0
0 0 0 0 0 0 0 0 0 0 0 0 0 0 0 0 0 0 0 0 0 0
0 0 0 0 0 0 0 0 0 0 0 0 0 0 0 0 0 0 0 0 0 0
0 0 0 0 0 0 0 0 0 0 0 0 0 0 0 0 0 0 0 0 0 0
0 0 0 0 0 0 0 0 0 0 0 0 0 0 0 0 0 0 0 0 0 0
0 0 0 0 0 0 0 0 0 0 0 0 0 0 0 0 0 0 0 0 0 0
0 0 0 0 0 0 0 0 0 0 0 0 0 0 0 0 0 0 0 0 0 0
0 0 0 0 0 0 0 0 0 0 0 0 0 0 0 0 0 0 0 0 0 0
0 0 0 0 0 0 0 0 0 0 0 0 0 0 0 0 0 0 0 0 0 0
0 0 0 0 0 0 0 0 0 0 0 0 0 0 0 0 0 0 0 0 0 0
0 0 0 0 0 0 0 0 0 0 0 0 0 0 0 0 0 0 0 0 0 0
0 0 0 0 0 0 0 0 0 0 0 0 0 0 0 0 0 0 0 0 0 0
0 0 0 0 0 0 0 0 0 0 0 0 0 0 0 0 0 0 0 0 0 0
0 0 0 0 0 0 0 0 0 0 0 0 0 0 0 0 0 0 0 0 0 0
Wind_Speed_500mb
16 18 22 25 27 31 33 34 35 36 36 37 37 36 35 35 36 37 37 37 36 37
19 22 24 27 29 31 32 32 33 33 34 34 33 34 36 36 36 38 38 39 41 43
20 22 25 27 29 31 32 33 33 33 31 31 33 35 36 37 37 38 40 41 41 44
22 25 28 30 31 31 32 31 28 27 28 31 34 35 36 37 38 39 41 43 47 48
23 26 28 30 31 31 28 25 24 25 28 31 32 33 36 39 42 45 47 49 51 52
25 27 30 31 32 29 26 23 22 24 25 28 33 38 41 44 48 51 52 52 54 54
26 28 31 32 30 27 24 23 23 24 27 31 35 40 44 48 52 54 54 55 54 53
29 32 33 33 31 27 25 24 24 26 29 34 39 45 50 52 55 57 56 55 53 52
32 35 36 34 31 29 28 27 28 30 34 39 43 46 50 55 58 58 57 55 56 53
34 37 38 36 34 34 33 33 34 36 38 41 46 51 55 58 59 57 56 56 55 52
38 41 40 39 38 39 39 39 39 40 43 47 52 55 58 61 60 59 57 55 53 51
42 42 42 41 40 41 42 42 42 44 47 51 54 58 61 63 61 60 58 55 52 50
43 43 42 41 41 43 43 42 44 46 50 54 57 60 61 61 58 57 57 55 54 53
44 43 43 42 40 42 43 44 45 48 51 55 59 61 61 57 54 53 53 55 59 59
Wind_Direction_500mb
356 350 349 350 347 345 344 343 344 344 346 345 345 345 348 349 350 352 352 352 354 354
350 351 347 347 344 342 341 339 340 341 342 344 346 348 349 350 350 351 352 353 352 350
346 346 344 342 340 339 338 336 335 337 342 345 346 346 346 347 348 348 347 346 343 340
345 343 340 336 334 329 328 328 329 335 341 343 342 343 342 342 342 340 339 338 338 337
335 334 329 326 322 321 321 323 328 334 338 338 337 339 339 338 336 336 336 335 336 337
324 323 322 321 318 316 317 317 322 326 330 334 337 338 337 337 337 336 335 335 335 333
314 318 319 317 314 310 307 308 314 318 328 332 332 335 336 337 336 331 329 329 330 330
314 317 318 317 311 302 296 296 304 312 319 326 332 334 333 331 329 326 327 328 328 328
312 315 317 312 301 292 288 293 300 312 317 322 325 325 326 328 329 326 327 328 327 325
310 314 313 308 300 293 292 295 298 302 310 316 318 322 327 329 328 324 326 326 325 322
310 312 309 304 297 290 287 289 294 299 305 311 320 324 327 327 326 324 324 325 325 323
308 306 305 300 292 288 285 286 291 299 307 314 319 323 326 326 325 324 324 325 325 325
304 305 302 296 290 284 284 292 298 303 309 314 319 323 323 324 323 321 322 323 325 326
301 300 297 292 291 292 292 293 297 303 309 313 317 320 323 322 321 320 322 318 322 326
Wind_Speed_850mb
16 18 22 25 27 31 33 34 35 36 36 37 37 36 35 35 36 37 37 37 36 37
19 22 24 27 29 31 32 32 33 33 34 34 33 34 36 36 36 38 38 39 41 43
20 22 25 27 29 31 32 33 33 33 31 31 33 35 36 37 37 38 40 41 41 44
22 25 28 30 31 31 32 31 28 27 28 31 34 35 36 37 38 39 41 43 47 48
23 26 28 30 31 31 28 25 24 25 28 31 32 33 36 39 42 45 47 49 51 52
25 27 30 31 32 29 26 23 22 24 25 28 33 38 41 44 48 51 52 52 54 54
26 28 31 32 30 27 24 23 23 24 27 31 35 40 44 48 52 54 54 55 54 53
29 32 33 33 31 27 25 24 24 26 29 34 39 45 50 52 55 57 56 55 53 52
32 35 36 34 31 29 28 27 28 30 34 39 43 46 50 55 58 58 57 55 56 53
34 37 38 36 34 34 33 33 34 36 38 41 46 51 55 58 59 57 56 56 55 52
38 41 40 39 38 39 39 39 39 40 43 47 52 55 58 61 60 59 57 55 53 51
42 42 42 41 40 41 42 42 42 44 47 51 54 58 61 63 61 60 58 55 52 50
43 43 42 41 41 43 43 42 44 46 50 54 57 60 61 61 58 57 57 55 54 53
44 43 43 42 40 42 43 44 45 48 51 55 59 61 61 57 54 53 53 55 59 59
Wind_Direction_850mb
356 350 349 350 347 345 344 343 344 344 346 345 345 345 348 349 350 352 352 352 354 354
350 351 347 347 344 342 341 339 340 341 342 344 346 348 349 350 350 351 352 353 352 350
346 346 344 342 340 339 338 336 335 337 342 345 346 346 346 347 348 348 347 346 343 340
345 343 340 336 334 329 328 328 329 335 341 343 342 343 342 342 342 340 339 338 338 337
335 334 329 326 322 321 321 323 328 334 338 338 337 339 339 338 336 336 336 335 336 337
324 323 322 321 318 316 317 317 322 326 330 334 337 338 337 337 337 336 335 335 335 333
314 318 319 317 314 310 307 308 314 318 328 332 332 335 336 337 336 331 329 329 330 330
314 317 318 317 311 302 296 296 304 312 319 326 332 334 333 331 329 326 327 328 328 328
312 315 317 312 301 292 288 293 300 312 317 322 325 325 326 328 329 326 327 328 327 325
310 314 313 308 300 293 292 295 298 302 310 316 318 322 327 329 328 324 326 326 325 322
310 312 309 304 297 290 287 289 294 299 305 311 320 324 327 327 326 324 324 325 325 323
308 306 305 300 292 288 285 286 291 299 307 314 319 323 326 326 325 324 324 325 325 325
304 305 302 296 290 284 284 292 298 303 309 314 319 323 323 324 323 321 322 323 325 326
301 300 297 292 291 292 292 293 297 303 309 313 317 320 323 322 321 320 322 318 322 326